Location: Cisewo
(53.3833°N, 14.9000°E)
Time: 13:48:40
(UTC+00:00)

Cosmos 2221 - Pass Details

Date: 18 April 2021
Orbit: 593 x 614 km, 82.5° (Epoch: 16 May)

Event Time Altitude Azimuth Distance (km) Brightness Sun altitude
Exits shadow 20:53:18 39° 95° (E) 903 3.1 -20.1°
Maximum altitude 20:53:22 39° 92° (E) 902 3.1 -20.1°
Drops below altitude 10° 20:57:22 10° 24° (NNE) 1,946 5.5 -20.4°
Sets 20:59:41 0° 17° (NNE) 2,856 6.6 -20.6°
